MOLNIYA 3-10

Last updated on Sun Jun 25 2023 01:03:02 GMT+0100 (British Summer Time)

1 11057U 78095A 23175.17086934 -.00000050 00000+0 42429-4 0 9999 2 11057 63.2504 263.6070 5753869 313.0717 11.3415 4.09887399398973
UTC large
Height (km)
Speed (km/s)
/
Latitude / Longitude
Inclination (degrees)
Orbital Period (minutes)
Azimuth
Elevation
Range (km)
Doppler Factor

Next 0 passes for location: London (51.5072 / 0.1276)

Sorry there are no passes over London.